Theta_e
302 301 303 304 304 303 304 305 304 305 305 305 307 308 307 307 306 305 304 304 302 302 301 300 300 301 301 300 300 300 299 298 294 297 299 300 296 294 294 294 294 295 295
300 298 297 298 299 298 298 299 299 299 299 299 299 299 299 298 298 297 297 299 298 297 299 298 298 299 299 299 299 298 298 298 296 293 295 295 295 296 296 295 295 294 294
295 295 294 294 294 293 293 294 294 293 293 293 292 292 292 292 292 291 292 292 292 292 292 292 293 294 291 291 293 295 296 296 295 293 291 294 294 294 294 294 292 292 291
291 290 289 289 289 289 289 289 289 289 288 288 288 287 288 288 288 286 287 288 288 289 290 290 291 290 288 288 288 288 290 289 290 289 289 289 290 291 289 289 289 291 291
287 286 285 285 285 285 284 284 283 283 284 284 283 283 283 285 287 285 285 285 285 285 286 287 288 287 288 289 288 286 287 287 286 286 286 286 286 286 286 288 287 288 289
284 283 283 282 282 282 282 282 282 282 282 282 282 282 281 283 289 289 287 284 285 285 284 285 286 285 286 289 290 290 289 286 285 285 285 284 284 285 286 286 285 285 283
281 281 281 281 281 281 281 281 281 281 281 281 281 281 281 282 288 288 288 284 284 284 284 284 285 285 284 285 287 288 287 288 288 286 284 284 284 285 285 284 284 284 283
280 279 279 279 279 279 279 279 279 280 280 281 281 281 281 282 287 288 287 284 283 284 284 284 284 284 285 285 285 285 285 285 285 285 285 285 286 286 286 286 285 286 286
278 277 277 278 277 277 275 277 278 278 279 280 281 280 279 281 286 287 285 282 283 282 283 283 284 284 286 288 285 284 284 285 288 289 290 290 291 291 290 286 283 283 282
277 277 277 277 275 274 276 276 277 278 278 279 279 279 278 279 283 285 284 282 281 282 282 283 284 283 286 286 284 284 282 284 284 285 286 287 288 286 287 285 284 282 282
275 275 275 276 274 275 275 276 276 276 277 276 277 276 277 278 279 283 283 281 280 279 279 280 281 283 285 286 286 284 284 285 285 285 285 285 285 284 283 283 284 284 283
274 273 273 274 275 275 275 275 275 275 274 274 273 274 276 276 278 280 281 282 282 279 278 279 280 284 284 285 285 286 287 287 285 284 284 283 283 282 282 282 283 284 285
272 273 273 274 274 275 274 273 273 273 272 272 273 272 273 275 276 278 279 281 280 278 279 281 283 283 284 283 284 285 283 282 282 283 282 281 283 282 282 283 283 284 284
273 273 273 273 272 273 273 273 272 271 271 271 270 270 270 272 274 276 277 277 278 278 279 278 280 283 283 283 278 281 280 282 283 283 282 282 283 282 281 281 280 282 281
272 272 272 271 271 271 272 272 272 272 272 268 267 271 270 271 275 278 278 277 277 277 274 273 272 271 270 271 272 274 277 281 278 280 280 280 281 281 280 280 280 278 276
271 270 270 270 270 270 269 269 274 274 276 276 277 276 274 276 278 278 278 278 276 275 262 263 265 266 266 267 269 269 271 273 276 279 280 280 280 280 279 280 272 272 275
269 269 268 269 268 268 267 267 266 268 273 273 274 275 275 275 276 276 275 273 273 268 257 262 262 263 264 265 266 267 267 269 271 273 276 280 280 279 279 278 277 275 275
266 267 267 267 267 266 265 265 265 264 263 264 268 271 272 273 273 273 271 266 257 259 255 256 260 262 263 263 264 264 266 267 268 269 270 272 277 279 278 277 277 276 275
266 265 265 264 264 264 264 264 263 261 260 259 259 264 265 270 270 269 268 254 254 257 259 259 258 260 261 262 262 263 264 265 267 268 268 269 271 273 278 278 277 276 276
264 263 263 262 262 262 261 261 259 258 258 257 256 257 257 257 255 256 253 251 251 252 254 257 258 259 260 260 261 261 262 263 265 267 267 268 269 271 273 277 277 276 276
263 263 262 261 261 258 256 256 256 254 254 253 253 255 270 256 253 250 250 252 250 251 253 255 259 258 259 260 260 260 261 262 264 266 266 267 267 268 272 273 277 277 276
262 261 260 260 259 258 255 255 255 254 254 253 254 253 266 252 250 249 250 250 251 250 251 252 257 257 258 260 261 260 260 261 262 264 265 266 267 268 269 270 272 274 276
260 260 259 256 257 256 255 253 253 253 253 252 252 252 251 250 249 249 250 251 250 251 253 249 252 256 255 254 257 260 261 260 261 264 264 265 265 266 267 267 269 270 271
256 256 256 254 254 252 251 251 251 252 251 250 249 248 249 249 250 250 251 250 250 251 250 251 250 252 255 255 253 256 259 260 262 263 264 265 264 264 265 265 266 267 269
254 254 255 254 250 251 249 249 249 248 248 248 249 248 248 249 249 250 251 251 251 251 252 251 251 251 252 252 252 253 254 259 259 261 265 264 263 263 263 264 264 265 267
254 253 251 249 248 248 248 249 248 249 249 250 250 249 249 250 251 251 252 251 252 253 251 251 251 251 251 252 252 255 260 262 261 262 263 258 258 260 261 261 262 263 264
Wind_Speed
6 5 7 8 10 8 8 7 7 7 7 7 6 5 6 5 5 5 5 4 2 1 1 3 4 4 3 3 3 5 6 6 11 9 8 5 4 6 6 7 8 10 9
6 8 8 8 8 8 8 8 7 8 7 7 7 8 7 6 6 6 5 4 3 3 3 3 3 2 4 4 4 6 7 7 10 19 13 10 10 8 9 10 8 8 10
7 9 9 9 8 8 8 8 9 9 8 8 7 7 6 6 6 6 5 4 4 3 3 3 4 4 4 4 5 6 6 6 8 11 14 11 9 7 10 9 7 9 8
8 9 9 7 7 7 6 8 8 7 7 7 7 7 7 6 6 6 6 5 4 4 4 4 4 4 5 5 4 5 6 7 8 10 11 11 8 7 4 8 11 8 11
8 9 8 6 6 6 7 7 7 7 7 7 7 7 6 6 4 5 4 4 4 4 4 4 5 5 7 7 4 5 7 9 9 11 11 11 10 10 12 10 13 12 13
7 8 6 6 6 6 6 6 7 7 6 6 7 6 7 4 11 11 8 4 4 4 5 5 5 6 7 11 11 13 10 8 11 8 10 13 13 10 11 11 12 12 16
7 6 6 6 7 6 5 6 7 6 5 7 6 6 6 5 12 11 10 4 4 4 4 4 4 3 4 4 8 12 11 14 15 12 13 12 15 13 13 14 14 13 15
7 7 6 6 6 6 5 7 6 4 5 5 6 6 5 5 13 11 5 1 2 3 4 4 4 5 5 7 7 7 7 7 9 8 11 14 14 14 12 14 16 16 15
7 6 6 5 5 5 5 6 4 4 6 6 4 5 4 2 13 13 9 2 3 2 3 3 4 5 9 15 10 11 11 11 12 19 22 26 27 25 20 12 13 14 15
5 6 6 5 4 5 5 6 4 4 5 4 4 4 4 6 15 16 14 6 8 7 8 8 11 10 18 19 12 12 13 12 12 12 10 13 15 14 20 14 12 14 14
5 6 5 4 5 5 5 4 3 4 6 5 6 5 5 8 9 17 18 7 6 7 6 7 6 17 20 22 22 11 13 17 17 13 11 9 8 9 9 10 11 10 13
6 5 5 3 3 3 5 5 6 4 5 6 4 3 3 6 11 13 15 14 15 7 7 7 8 20 22 21 18 20 23 22 11 11 10 9 9 9 8 9 11 14 11
6 6 5 4 3 4 6 5 4 5 5 5 4 4 5 5 4 11 11 16 15 10 8 15 23 22 21 15 17 21 17 8 9 10 11 9 8 9 10 11 13 14 13
7 6 5 5 5 4 4 4 4 3 4 3 2 2 2 4 5 4 6 7 11 10 14 10 15 17 16 14 7 8 7 8 9 9 9 10 10 10 10 10 9 9 8
6 6 5 4 4 4 4 2 3 1 2 2 1 1 3 5 6 13 12 8 9 12 11 7 8 8 9 9 10 11 12 8 7 8 9 10 10 11 10 8 7 5 6
7 5 4 4 3 3 3 3 7 7 7 9 10 6 2 10 13 15 15 16 15 18 4 4 6 8 8 10 10 11 10 13 12 13 12 9 9 9 8 8 3 3 7
5 6 4 4 4 4 4 3 2 3 8 10 8 7 10 8 12 12 14 13 14 11 2 5 6 7 8 8 9 10 11 11 13 11 13 11 8 8 8 7 7 5 7
5 5 3 2 3 3 3 3 2 2 2 2 5 5 8 9 11 13 14 8 4 6 2 2 4 6 7 8 9 9 10 10 11 11 11 12 13 8 8 7 6 7 6
5 4 3 2 2 3 2 3 2 2 0 1 2 3 5 9 10 10 12 2 2 4 6 6 4 6 7 7 8 9 10 9 10 10 10 11 12 12 11 7 7 8 8
4 6 4 3 2 2 3 3 2 1 1 1 1 2 3 3 3 3 2 2 2 2 3 4 4 5 6 7 8 8 9 9 10 9 11 11 11 11 12 12 7 6 6
4 4 6 3 3 2 2 3 2 1 2 2 3 3 5 3 2 2 3 4 3 3 3 3 6 5 5 6 7 8 8 9 9 10 10 11 11 11 12 12 11 7 5
5 5 4 4 3 3 3 2 3 3 2 2 3 3 8 1 2 2 3 3 4 3 3 3 5 5 6 6 8 8 9 9 10 10 10 11 11 11 11 11 11 11 8
4 4 4 3 3 3 2 2 3 3 3 3 4 3 3 2 2 3 4 4 3 3 4 3 4 6 4 4 4 6 8 9 9 10 11 10 10 10 10 10 10 10 10
5 4 4 3 3 3 3 3 4 4 3 3 3 3 3 3 4 5 4 3 3 4 4 4 4 6 7 6 4 4 6 7 9 9 14 8 9 10 10 10 9 12 10
5 4 4 4 4 4 3 4 3 2 3 3 3 3 3 4 4 4 5 4 5 5 6 5 5 7 9 10 9 10 9 13 9 13 8 6 9 11 9 8 10 10 10
5 5 5 3 3 3 4 4 4 3 3 2 4 4 4 4 4 5 5 5 5 6 7 5 7 10 10 9 10 12 13 14 13 11 8 3 5 6 7 9 11 8 9
Wind_Direction
86 84 90 79 74 75 72 67 69 69 63 68 67 73 75 77 76 82 75 72 72 37 272 253 258 249 251 257 247 245 253 255 274 283 280 280 257 256 253 249 253 259 262
92 86 81 80 83 84 80 77 75 74 60 65 68 68 61 59 55 62 71 59 43 15 341 320 287 274 274 268 262 264 263 270 279 291 295 296 288 284 284 273 259 242 248
79 88 80 78 80 79 79 81 79 81 75 69 72 71 69 64 66 56 61 51 35 11 347 333 318 337 316 301 284 286 285 282 282 287 294 295 293 289 286 277 261 265 252
88 86 82 79 84 85 83 80 76 70 77 72 66 67 64 61 58 47 34 25 15 355 336 312 293 287 262 271 276 277 291 294 295 289 292 298 299 302 286 298 298 284 288
97 94 90 81 75 75 74 77 82 78 77 74 71 60 57 57 39 44 33 20 6 339 313 297 283 280 279 278 278 277 291 295 294 295 296 301 304 311 307 307 297 301 292
95 93 86 80 74 76 83 82 77 71 68 68 60 60 54 47 34 26 16 3 357 348 338 326 328 326 320 315 311 308 304 300 297 293 297 297 301 305 302 301 300 302 300
101 95 93 92 90 73 62 66 67 64 63 60 54 47 44 34 29 24 10 9 351 344 325 318 320 303 280 274 298 307 302 297 293 294 290 286 292 293 293 292 289 284 282
100 91 79 79 84 81 75 66 59 55 54 50 44 38 32 24 22 17 20 356 13 341 328 320 314 309 307 319 307 299 291 284 281 277 273 280 278 283 276 281 287 284 279
115 108 95 84 82 78 72 65 45 57 55 41 21 18 21 353 22 16 23 14 19 344 326 295 302 296 305 318 315 304 294 287 279 275 273 275 279 284 289 297 289 286 283
113 106 90 96 99 87 76 61 34 31 53 46 39 23 23 26 20 21 20 9 4 358 350 339 326 326 326 321 310 299 291 293 294 284 275 271 271 278 286 278 278 280 282
91 89 73 70 83 79 89 82 82 65 56 55 50 22 19 21 13 19 16 13 344 334 323 322 321 320 317 315 311 302 291 300 299 290 285 279 275 279 274 272 273 277 284
102 94 85 58 75 92 110 90 70 84 77 54 50 32 15 18 13 10 360 349 341 321 312 312 304 312 316 310 310 301 303 308 298 289 283 278 283 291 281 277 281 287 277
114 110 114 123 96 64 63 72 73 53 60 56 37 16 7 1 347 336 332 347 337 332 320 314 316 310 304 308 299 308 312 296 291 292 293 287 295 297 295 289 295 292 284
136 132 125 105 82 69 70 65 74 63 53 52 37 356 321 339 332 329 344 335 333 336 332 325 315 316 315 316 311 313 302 290 292 298 297 294 299 305 301 298 291 297 298
130 128 129 110 115 108 93 80 78 65 111 133 243 326 4 356 348 346 344 345 347 341 342 343 356 352 346 347 344 338 333 316 305 304 305 305 302 305 299 294 286 295 298
145 140 132 131 130 106 95 88 56 54 57 55 37 31 36 358 347 350 354 358 356 4 12 355 357 355 352 342 337 334 332 334 334 323 310 300 297 298 294 299 270 268 299
133 131 141 147 143 140 124 106 103 23 61 50 36 36 22 352 2 3 9 15 13 25 32 5 357 349 339 334 335 334 331 329 321 321 325 303 294 295 299 304 303 299 301
104 125 128 143 131 114 107 108 86 54 53 14 9 40 12 16 15 22 26 17 351 7 24 347 341 337 332 334 332 328 323 325 331 330 328 329 325 303 301 301 304 298 298
141 146 147 131 108 114 128 98 91 87 89 268 315 334 359 10 28 33 32 103 17 359 353 347 336 335 328 326 324 321 323 324 324 330 331 329 327 327 314 299 298 297 294
141 142 141 134 135 130 97 101 102 123 284 275 314 273 297 29 16 340 7 37 29 339 323 318 312 318 319 322 322 320 323 327 328 334 336 332 328 324 323 317 302 304 302
160 154 157 147 139 115 117 146 190 185 233 268 256 262 354 103 325 333 337 342 325 308 292 301 318 308 310 312 315 322 320 320 325 326 333 333 329 326 328 325 323 305 295
164 167 161 148 138 139 181 191 192 200 221 243 268 279 349 65 15 318 291 282 270 250 252 267 294 284 290 305 316 319 318 320 323 325 325 331 329 327 329 327 328 333 315
179 165 141 143 145 159 168 212 201 192 224 245 261 297 346 331 282 267 268 263 270 289 284 273 269 294 279 270 280 297 305 312 313 314 314 324 328 328 328 328 328 333 332
148 153 162 157 151 171 179 216 215 219 241 266 289 287 276 269 272 274 275 274 274 271 270 282 268 273 288 289 275 280 285 294 303 306 308 316 323 325 326 327 331 328 327
144 162 179 179 173 182 201 224 222 223 234 240 263 260 267 267 269 270 272 274 272 273 270 266 262 270 277 286 291 290 286 298 301 299 304 313 317 321 322 321 326 326 333
164 181 192 171 174 191 205 218 227 223 230 235 247 251 253 263 267 268 267 265 273 275 271 264 261 269 278 282 281 283 293 305 300 291 315 289 307 317 322 320 327 327 332